Regional Weather Roundup
Issued by NWS

Home | Current Version | Previous Version | Text Only | Print | Product List | Glossary Off
Versions: 1 2 3 4 5 6 7 8 9 10 11 12 13 14 15 16 17 18 19 20 21 22 23 24 25 26 27 28 29 30 31 32 33 34 35 36 37 38 39 40 41 42 43 44 45 46 47 48 49 50

000
ASUS43 KFSD 121202
RWRSD

WEATHER ROUNDUP FOR SOUTH DAKOTA
NATIONAL WEATHER SERVICE SIOUX FALLS SD
600 AM CST TUE DEC 12 2017

NOTE: "FAIR" INDICATES FEW OR NO CLOUDS BELOW 12,000 FEET WITH NO
SIGNIFICANT WEATHER AND/OR OBSTRUCTIONS TO VISIBILITY.


SDZ001>005-009-010-012>017-121300-
NORTHWEST AND NORTH CENTRAL SOUTH DAKOTA

CITY           SKY/WX    TMP DP  RH WIND       PRES   REMARKS
BUFFALO          N/A     26  19  74 W12       30.10F WCI  16
FAITH            N/A     26  21  81 SW8       30.19F WCI  18
MOBRIDGE       CLOUDY    27  23  85 W3        30.16F
$$

SDZ012>016-024>037-041>051-057-063-072>074-121300-
SOUTHWEST AND SOUTH CENTRAL SOUTH DAKOTA

CITY           SKY/WX    TMP DP  RH WIND       PRES   REMARKS
RAPID CTY ARPT CLOUDY    18  11  74 CALM      30.21F
PIERRE         CLEAR     29  26  89 W10       30.23F WCI  20
CUSTER         CLOUDY    35   7  31 W10       30.22F WCI  27
ELLSWORTH AFB  CLOUDY    23   9  55 W6        30.19F WCI  15
PHILIP         CLOUDY    20  19  96 W8        30.25F WCI  10
PINE RIDGE     CLOUDY    23  17  78 CALM      30.27F
SPEARFISH      FAIR      41  12  30 W13       30.20F
WINNER         FAIR      28  23  81 W9        30.26F WCI  19
$$

SDZ004>011-016>023-039-040-121300-
NORTHEAST SOUTH DAKOTA

CITY           SKY/WX    TMP DP  RH WIND       PRES   REMARKS
ABERDEEN       CLOUDY    24  22  91 SW7       30.21F WCI  16
WATERTOWN      CLOUDY    17  15  92 W8        30.19F WCI   7
BROOKINGS      CLOUDY    15  12  88 SW3       30.24F
SISSETON         N/A     24  19  81 W8        30.17F WCI  15
$$

SDZ017-020-022-023-036>040-048>070-121300-
SOUTHEAST SOUTH DAKOTA

CITY           SKY/WX    TMP DP  RH WIND       PRES   REMARKS
SIOUX FALLS    CLOUDY    14  12  92 W5        30.27F WCI   6
HURON          CLOUDY    23  20  88 VRB5      30.26F WCI  17
CHAMBERLAIN    CLOUDY    29  29 100 CALM      30.25F
MITCHELL       CLOUDY    22  19  89 S3        30.28F
$$

ABBREVIATIONS USED IN REMARKS
   TC - TEMPERATURE IN CELSIUS
  WCI - WIND CHILL INDEX
   HX - HEAT INDEX
  VSB - VISIBILITY





USA.gov is the U.S. government's official web portal to all federal, state and local government web resources and services.